This is the latest recevied weather packets stored in our database for station/object SALT. If no packets are shown the sender has not sent any weather packets the latest 10 day(s).
| Time | Temp. | Humidity | Pressure | Rain* | Wind** | Luminosity | Snow |
|---|---|---|---|---|---|---|---|
| 1777902279 | 10.56° C | 45% | 1013.6 hPa | 0 mm | - | - | - |
| 1777901674 | 10° C | 46% | 1013.5 hPa | 0 mm | - | - | - |
| 1777901071 | 10° C | 46% | 1013.3 hPa | 0 mm | - | - | - |
| 1777900468 | 10° C | 45% | 1013.3 hPa | 0 mm | - | - | - |
| 1777899866 | 10° C | 46% | 1013.3 hPa | 0 mm | - | - | - |
| 1777899263 | 9.44° C | 46% | 1013.3 hPa | 0 mm | - | - | - |
| 1777898661 | 9.44° C | 46% | 1013.3 hPa | 0 mm | - | - | - |
| 1777898056 | 9.44° C | 46% | 1013.3 hPa | 0 mm | - | - | - |
| 1777897452 | 10° C | 43% | 1013.3 hPa | 0 mm | - | - | - |
| 1777896849 | 10.56° C | 43% | 1013.3 hPa | 0 mm | - | - | - |
| 1777896246 | 10° C | 42% | 1013.4 hPa | 0 mm | - | - | - |
| 1777895644 | 10° C | 42% | 1013.4 hPa | 0 mm | - | - | - |
| 1777895042 | 9.44° C | 42% | 1013.4 hPa | 0 mm | - | - | - |
| 1777894438 | 9.44° C | 42% | 1013.4 hPa | 0 mm | - | - | - |
| 1777893834 | 9.44° C | 42% | 1013.6 hPa | 0 mm | - | - | - |
| 1777893231 | 9.44° C | 41% | 1013.7 hPa | 0 mm | - | - | - |
| 1777892629 | 9.44° C | 39% | 1013.7 hPa | 0 mm | - | - | - |
| 1777892027 | 10° C | 37% | 1013.8 hPa | 0 mm | - | - | - |
| 1777891424 | 10° C | 39% | 1013.8 hPa | 0 mm | - | - | - |
| 1777890819 | 9.44° C | 43% | 1013.8 hPa | 0 mm | - | - | - |
| 1777890215 | 9.44° C | 46% | 1013.8 hPa | 0 mm | - | - | - |
| 1777889614 | 8.89° C | 49% | 1013.8 hPa | 0 mm | - | - | - |
| 1777889010 | 8.33° C | 50% | 1013.7 hPa | 0 mm | - | - | - |
| 1777888409 | 8.33° C | 51% | 1013.8 hPa | 0 mm | - | - | - |
| 1777887806 | 8.89° C | 51% | 1013.7 hPa | 0 mm | - | - | - |
* Rain latest 24 hours (hover to see other rain measurements)
** Current wind speed in m/s (hover to see current wind gust speed)